Tracking 29932 objects as of 3-Dec-2024
HD Live streaming from Space Station
objects crossing your sky now

IRIDIUM 33 DEB

Track IRIDIUM 33 DEB now!
10-day predictions


NORAD ID: 35846
Int'l Code: 1997-051SW
Perigee: 749.2 km
Apogee: 776.6 km
Inclination: 86.4 °
Period: 99.9 minutes
Semi major axis: 7133 km
RCS: 0.0007 m2 (small)
Launch date: September 14, 1997
Source: United States (US)
Launch site: TYURATAM MISSILE AND SPACE COMPLEX (TTMTR)

Note: This is SATELLITE DEBRIS
Your satellite tracking list
Your tracking list is empty




NASA's NSSDC Master Catalog

Two Line Element Set (TLE):
1 35846U 97051SW  24332.67185867  .00005475  00000-0  17004-2 0  9995
2 35846  86.3806 220.6108 0019182 358.7954   1.3196 14.40820423658513
Source of the keplerian elements: AFSPC